Weather History for Jacksonville, FL

Change the Weather History Date:

Saturday, November 30, 2013

  Actual Average Record
Temperature  
Mean Temperature 55 °F 59 °F  
Max Temperature 58 °F 70 °F 84 °F (1982)
Min Temperature 52 °F 47 °F 26 °F (1959)
Degree Days  
Heating Degree Days 10 8  
Month to date heating degree days 135 146  
Since 1 July heating degree days 156 173  
Cooling Degree Days 0 1  
Month to date cooling degree days 61 61  
Year to date cooling degree days 2599 2644  
Growing Degree Days 4 (Base 50)    
Moisture  
Dew Point 50 °F    
Average Humidity 89    
Maximum Humidity 100    
Minimum Humidity 77    
Precipitation  
Precipitation 0.00 in 0.08 in 1.81 in (1876)
Month to date precipitation 2.84 2.11  
Year to date precipitation 44.36 49.59  
Snow  
Snow 0.00 in 0.00 in 0.00 in (2001)
Month to date snowfall 0.0 0.0  
Since 1 July snowfall 0.0 0.0  
Since 1 September snowfall 0.0 0.0  
Snow Depth 0.00 in    
Sea Level Pressure  
Sea Level Pressure 30.35 in    
Wind  
Wind Speed 10 mph (NNE)    
Max Wind Speed 17 mph    
Max Gust Speed 24 mph    
Visibility 10 miles    
Events      
T = Trace of Precipitation, MM = Missing Value Source: NWS Daily Summary

Daily Weather History Graph

Daily Weather History Graph

Search for Another Location

Airport:

Trip Planner

Search our weather history database for the weather conditions in past years. The results will help you decide how hot, cold, wet, or windy it might be!

Date:

Astronomy

Nov. 30, 2013 Rise Set
Actual Time 7:05 AM EST 5:25 PM EST
Civil Twilight 6:39 AM EST 5:51 PM EST
Nautical Twilight 6:09 AM EST 6:21 PM EST
Astronomical Twilight 5:40 AM EST 6:50 PM EST
Moon 4:24 AM EST (11/30) 3:41 PM EST (11/30)
Length of Visible Light 11h 12m
Length of Day
10h 20m
Waning Crescent, 7% of the Moon is Illuminated
Nov 30
Waning Crescent
Dec 2
New
Dec 9
First Quarter
Dec 17
Full
Dec 25
Last Quarter

Hourly Weather History & Observations

Time (EST) Temp. Dew Point Humidity Pressure Visibility Wind Dir Wind Speed Gust Speed Precip Events Conditions
12:56 AM 53.1 °F 46.0 °F 77% 30.40 in 10.0 mi North 6.9 mph - N/A   Overcast
1:56 AM 53.1 °F 46.9 °F 80% 30.38 in 10.0 mi NNW 6.9 mph - N/A   Overcast
2:11 AM 53.1 °F 46.9 °F 80% 30.38 in 10.0 mi North 6.9 mph - N/A   Overcast
2:50 AM 53.6 °F 48.2 °F 82% 30.36 in 10.0 mi North 8.1 mph - N/A   Overcast
2:56 AM 53.1 °F 48.0 °F 83% 30.37 in 10.0 mi NNE 9.2 mph - N/A   Overcast
3:56 AM 54.0 °F 48.9 °F 83% 30.36 in 10.0 mi North 6.9 mph - N/A   Overcast
4:56 AM 53.1 °F 50.0 °F 89% 30.36 in 10.0 mi North 8.1 mph - N/A   Mostly Cloudy
5:11 AM 53.1 °F 50.0 °F 89% 30.36 in 10.0 mi North 10.4 mph - N/A   Mostly Cloudy
5:56 AM 53.1 °F 50.0 °F 89% 30.37 in 10.0 mi North 9.2 mph - N/A   Overcast
6:45 AM 54.0 °F 51.1 °F 90% 30.39 in 10.0 mi North 12.7 mph 19.6 mph N/A   Overcast
6:56 AM 54.0 °F 51.1 °F 90% 30.39 in 10.0 mi NNE 13.8 mph - N/A   Overcast
7:56 AM 52.0 °F 51.1 °F 97% 30.39 in 6.0 mi North 11.5 mph - N/A   Overcast
8:56 AM 53.1 °F 51.1 °F 93% 30.40 in 9.0 mi NNE 13.8 mph - N/A   Overcast
9:56 AM 55.0 °F 52.0 °F 89% 30.41 in 8.0 mi NNE 15.0 mph 23.0 mph N/A   Overcast
10:56 AM 55.0 °F 52.0 °F 89% 30.41 in 8.0 mi NNE 12.7 mph - N/A   Overcast
11:56 AM 55.0 °F 52.0 °F 89% 30.40 in 9.0 mi North 12.7 mph 21.9 mph N/A   Overcast
12:56 PM 55.0 °F 52.0 °F 89% 30.38 in 9.0 mi NNE 12.7 mph - N/A   Overcast
1:40 PM 57.0 °F 51.1 °F 81% 30.35 in 10.0 mi NNE 15.0 mph - N/A   Mostly Cloudy
1:56 PM 57.9 °F 52.0 °F 81% 30.34 in 10.0 mi NNE 12.7 mph - N/A   Mostly Cloudy
2:56 PM 55.9 °F 51.1 °F 84% 30.32 in 10.0 mi NNE 12.7 mph - N/A   Overcast
3:56 PM 55.0 °F 51.1 °F 86% 30.34 in 10.0 mi NNE 12.7 mph - N/A   Overcast
4:56 PM 55.0 °F 51.1 °F 86% 30.32 in 10.0 mi NNE 8.1 mph - N/A   Overcast
5:56 PM 54.0 °F 50.0 °F 86% 30.31 in 10.0 mi NNE 8.1 mph - N/A   Mostly Cloudy
6:31 PM 53.1 °F 48.0 °F 83% 30.30 in 10.0 mi NNE 5.8 mph - N/A   Mostly Cloudy
6:45 PM 53.1 °F 48.0 °F 83% 30.31 in 10.0 mi NNE 4.6 mph - N/A   Mostly Cloudy
6:56 PM 53.1 °F 48.0 °F 83% 30.31 in 10.0 mi North 4.6 mph - N/A   Mostly Cloudy
7:20 PM 52.0 °F 48.0 °F 86% 30.31 in 10.0 mi North 3.5 mph - N/A   Scattered Clouds
7:36 PM 52.0 °F 48.0 °F 86% 30.30 in 10.0 mi North 3.5 mph - N/A   Mostly Cloudy
7:56 PM 52.0 °F 48.9 °F 89% 30.30 in 10.0 mi North 3.5 mph - N/A   Overcast
8:56 PM 54.0 °F 48.9 °F 83% 30.30 in 10.0 mi NE 8.1 mph - N/A   Overcast
9:56 PM 55.9 °F 51.1 °F 84% 30.29 in 10.0 mi North 5.8 mph - N/A   Overcast
10:56 PM 55.9 °F 52.0 °F 87% 30.28 in 10.0 mi North 5.8 mph - N/A   Overcast
11:56 PM 55.9 °F 51.1 °F 84% 30.26 in 10.0 mi NNE 8.1 mph - N/A   Overcast